METEOR 2-5 DEB, 28594

Orbit data source: Space-Track

METEOR 2-5 DEB, 28594 is space debris in LEO originally from a launch on Wed, 31 Oct 1979 UTC launched from the Plesetsk Missile And Space Complex (PKMTR). Debris objects in space refer to the collection of defunct objects orbiting the Earth. Examples of debris include non-operational satellites, rocket bodies, and fragments generated from explosions, collisions, or faulty payload assembly.

Loading next visibility...
Identifier
28594, 1979-095E
Orbit
LEO
Country
Flag of CISCIS
Related business
Manufacturer
Unknown
Mission
Spacecraft
Bus & Motor
Unknown
Mass
Unknown
Launch date (UTC)
1979-10-31 (46 years ago)
Launch vehicle
Unknown
Launch site
Plesetsk Missile And Space Complex (PKMTR)
Object type
Payload
Rocket body
Debris
Shape & HBR
Unknown shape, 0.1 m
Radar Cross Section
Small (<0.1 m²)

Expand to show TLE details & history
Last TLE update: 1 week ago

TLE from 1 week ago
0 METEOR 2-5 DEB
1 28594U 79095E   25289.25300662  .00017464  00000-0  35551-2 0  9991
2 28594  81.1492 280.9889 0012202 173.2510 186.8856 14.60915471 97865
Epoch: 2025-10-16T06:04Z
TLE epoch observation values (Epoch: 2025-10-16T06:04:19.771Z)
Latitude
0.00002°
Longitude
164.89114°
Altitude
701.75 km
Speed
7.501 km/s
True Right ascension
18h 43m 57s
True Declination
0° 00' 00"
Sunlit
Object was in daylight at epoch
Visualization orbit readout
Latitude
Unknown
Longitude
Unknown
Altitude
Unknown
Speed
Unknown
Apparent Right ascension
Unknown
Apparent Declination
Unknown
Sunlit
N/A
Visualization observer readout
Local Sidereal Time
13:53:56
Azimuth
Unknown
Elevation
Unknown
Doppler factor
Unknown
Orbital elements
Apogee altitude
695.952 km
Perigee altitude
678.709 km
Semi-major axis
7,065.468 km
Eccentricity
0.00122
Inclination
81.1492°
RAAN
280.9889°
Arg. of periapsis
173.251°
True anomaly
186.86886°
Mean anomaly
186.8856°
Eccentric anomaly
186.87723°
Mean motion
3.65453 °/min
Orbital period
98.51 mins
BSTAR
0.0035551
Loading maneuver chart data...
Computing Atmospheric mass density...

Documentation

Showing up to 5 results
|